| time (UTC) | temp F | wind direction | speed MPH | gust MPH | rain 1hr in | rain 24hr in | rain mn in | humidity % | barometer mb |
| 20260509191955 | 64 | 0 | 0.0 | 0.0 | 0.00 | 0.00 | 0.00 | 76 | 1014.0 |
| 20260509190000 | 65 | 0 | 0.0 | 0.0 | 0.00 | 0.00 | 0.00 | 76 | 1013.7 |
| 20260509184955 | 66 | 0 | 0.0 | 0.0 | 0.00 | 0.00 | 0.00 | 75 | 1013.6 |
| 20260509183958 | 66 | 0 | 0.0 | 0.0 | 0.00 | 0.00 | 0.00 | 75 | 1013.5 |
| 20260509182955 | 67 | 0 | 0.0 | 0.0 | 0.00 | 0.00 | 0.00 | 74 | 1013.4 |
| 20260509181956 | 67 | 0 | 0.0 | 0.0 | 0.00 | 0.00 | 0.00 | 72 | 1013.4 |
| 20260509180955 | 67 | 0 | 0.0 | 0.0 | 0.00 | 0.00 | 0.00 | 72 | 1013.4 |
| 20260509175955 | 67 | 0 | 0.0 | 0.0 | 0.00 | 0.00 | 0.00 | 72 | 1013.4 |
| 20260509174954 | 68 | 0 | 0.0 | 0.0 | 0.00 | 0.00 | 0.00 | 71 | 1013.3 |
| 20260509173955 | 69 | 0 | 0.0 | 0.0 | 0.00 | 0.00 | 0.00 | 69 | 1013.3 |
| 20260509171955 | 69 | 0 | 0.0 | 0.0 | 0.00 | 0.00 | 0.00 | 68 | 1013.1 |
| 20260509165954 | 69 | 0 | 0.0 | 0.0 | 0.00 | 0.00 | 0.00 | 64 | 1013.3 |
| 20260509164955 | 70 | 0 | 0.0 | 0.0 | 0.00 | 0.00 | 0.00 | 63 | 1013.4 |
| 20260509163955 | 70 | 0 | 0.0 | 0.0 | 0.00 | 0.00 | 0.00 | 64 | 1013.5 |
| 20260509162955 | 70 | 0 | 0.0 | 0.0 | 0.00 | 0.00 | 0.00 | 63 | 1013.6 |
| 20260509161955 | 70 | 239 | 0.0 | 1.0 | 0.00 | 0.00 | 0.00 | 59 | 1013.8 |
| 20260509161000 | 71 | 224 | 0.0 | 1.0 | 0.00 | 0.00 | 0.00 | 59 | 1014.1 |
| 20260509153955 | 72 | 208 | 0.0 | 5.0 | 0.00 | 0.00 | 0.00 | 59 | 1014.3 |
| 20260509152955 | 72 | 158 | 1.0 | 3.0 | 0.00 | 0.00 | 0.00 | 58 | 1014.4 |
| 20260509151957 | 71 | 240 | 1.0 | 9.0 | 0.00 | 0.00 | 0.00 | 59 | 1014.4 |
| 20260509150955 | 72 | 193 | 1.0 | 9.0 | 0.00 | 0.00 | 0.00 | 59 | 1014.4 |
| 20260509150001 | 71 | 188 | 2.0 | 6.0 | 0.00 | 0.00 | 0.00 | 60 | 1014.5 |
| 20260509144955 | 72 | 167 | 1.0 | 2.0 | 0.00 | 0.00 | 0.00 | 58 | 1014.7 |
| 20260509142956 | 72 | 240 | 2.0 | 9.0 | 0.00 | 0.00 | 0.00 | 60 | 1014.8 |
| 20260509141955 | 72 | 229 | 3.0 | 10.0 | 0.00 | 0.00 | 0.00 | 59 | 1014.8 |
| 20260509140955 | 72 | 226 | 0.0 | 2.0 | 0.00 | 0.00 | 0.00 | 59 | 1014.9 |
| 20260509133956 | 73 | 231 | 1.0 | 6.0 | 0.00 | 0.00 | 0.00 | 59 | 1015.2 |
| 20260509133005 | 72 | 252 | 0.0 | 1.0 | 0.00 | 0.00 | 0.00 | 61 | 1015.2 |
| 20260509131955 | 73 | 198 | 2.0 | 4.0 | 0.00 | 0.00 | 0.00 | 60 | 1015.3 |
| 20260509130955 | 72 | 171 | 1.0 | 8.0 | 0.00 | 0.00 | 0.00 | 61 | 1015.5 |
| 20260509125955 | 72 | 162 | 2.0 | 5.0 | 0.00 | 0.00 | 0.00 | 61 | 1015.6 |
| 20260509123955 | 72 | 213 | 1.0 | 5.0 | 0.00 | 0.02 | 0.00 | 63 | 1015.7 |
| 20260509122956 | 71 | 234 | 0.0 | 1.0 | 0.00 | 0.02 | 0.00 | 63 | 1015.8 |
| 20260509121957 | 71 | 148 | 2.0 | 2.0 | 0.00 | 0.02 | 0.00 | 64 | 1015.9 |
| 20260509120955 | 71 | 232 | 2.0 | 6.0 | 0.00 | 0.02 | 0.00 | 65 | 1015.9 |
| 20260509115955 | 70 | 230 | 2.0 | 11.0 | 0.00 | 0.02 | 0.00 | 66 | 1015.9 |
| 20260509114956 | 70 | 244 | 3.0 | 8.0 | 0.00 | 0.02 | 0.00 | 65 | 1016.0 |
| 20260509113956 | 70 | 240 | 7.0 | 13.0 | 0.00 | 0.02 | 0.00 | 66 | 1016.1 |
| 20260509112956 | 70 | 237 | 4.0 | 12.0 | 0.00 | 0.02 | 0.00 | 65 | 1016.2 |
| 20260509111955 | 70 | 233 | 5.0 | 10.0 | 0.00 | 0.02 | 0.00 | 65 | 1016.3 |
| 20260509110955 | 70 | 242 | 6.0 | 12.0 | 0.00 | 0.02 | 0.00 | 65 | 1016.3 |
| 20260509104955 | 70 | 235 | 4.0 | 14.0 | 0.00 | 0.02 | 0.00 | 66 | 1016.2 |
| 20260509103955 | 71 | 203 | 5.0 | 9.0 | 0.00 | 0.02 | 0.00 | 65 | 1016.1 |
| 20260509101956 | 71 | 224 | 4.0 | 7.0 | 0.00 | 0.02 | 0.00 | 65 | 1016.1 |
| 20260509100956 | 70 | 238 | 5.0 | 11.0 | 0.00 | 0.02 | 0.00 | 65 | 1016.1 |
| 20260509095955 | 71 | 197 | 3.0 | 8.0 | 0.00 | 0.02 | 0.00 | 63 | 1016.2 |
| 20260509094957 | 71 | 225 | 4.0 | 7.0 | 0.00 | 0.02 | 0.00 | 63 | 1016.2 |
| 20260509093955 | 71 | 189 | 2.0 | 8.0 | 0.00 | 0.02 | 0.00 | 63 | 1016.2 |
| 20260509093001 | 71 | 233 | 2.0 | 1.0 | 0.00 | 0.02 | 0.00 | 63 | 1016.2 |
| 20260509091956 | 71 | 235 | 1.0 | 5.0 | 0.00 | 0.02 | 0.00 | 63 | 1016.3 |
| 20260509090955 | 71 | 190 | 2.0 | 6.0 | 0.00 | 0.02 | 0.00 | 62 | 1016.4 |
| 20260509085955 | 71 | 242 | 0.0 | 1.0 | 0.00 | 0.02 | 0.00 | 63 | 1016.4 |
| 20260509084956 | 70 | 228 | 0.0 | 1.0 | 0.00 | 0.02 | 0.00 | 62 | 1016.4 |
| 20260509083956 | 71 | 205 | 2.0 | 4.0 | 0.00 | 0.02 | 0.00 | 62 | 1016.5 |
| 20260509082956 | 71 | 228 | 2.0 | 3.0 | 0.00 | 0.02 | 0.00 | 61 | 1016.4 |
| 20260509080959 | 71 | 161 | 1.0 | 5.0 | 0.00 | 0.02 | 0.00 | 63 | 1016.4 |
| 20260509071956 | 65 | 0 | 0.0 | 0.0 | 0.00 | 0.02 | 0.00 | 72 | 1016.6 |
| 20260509070955 | 64 | 0 | 0.0 | 0.0 | 0.00 | 0.02 | 0.00 | 74 | 1016.7 |
| 20260509065956 | 63 | 0 | 0.0 | 0.0 | 0.00 | 0.02 | 0.00 | 76 | 1016.6 |
| 20260509062956 | 60 | 0 | 0.0 | 0.0 | 0.00 | 0.02 | 0.00 | 79 | 1016.6 |
| 20260509062006 | 59 | 67 | 0.0 | 1.0 | 0.00 | 0.02 | 0.00 | 81 | 1016.7 |
| 20260509060955 | 58 | 0 | 0.0 | 0.0 | 0.00 | 0.02 | 0.00 | 82 | 1016.8 |
| 20260509054955 | 57 | 0 | 0.0 | 0.0 | 0.00 | 0.02 | 0.00 | 84 | 1016.8 |
| 20260509053955 | 57 | 0 | 0.0 | 0.0 | 0.00 | 0.02 | 0.00 | 85 | 1016.7 |
| 20260509052956 | 56 | 0 | 0.0 | 0.0 | 0.00 | 0.02 | 0.00 | 86 | 1016.6 |
| 20260509051956 | 55 | 0 | 0.0 | 0.0 | 0.00 | 0.02 | 0.00 | 89 | 1016.6 |
| 20260509050956 | 54 | 0 | 0.0 | 0.0 | 0.00 | 0.02 | 0.00 | 89 | 1016.6 |
| 20260509045956 | 54 | 0 | 0.0 | 0.0 | 0.00 | 0.02 | 0.00 | 89 | 1016.5 |
| 20260509044957 | 55 | 0 | 0.0 | 0.0 | 0.00 | 0.02 | 0.00 | 88 | 1016.4 |
| 20260509043956 | 54 | 0 | 0.0 | 0.0 | 0.00 | 0.02 | 0.00 | 88 | 1016.4 |
| 20260509042955 | 55 | 0 | 0.0 | 0.0 | 0.00 | 0.02 | 0.00 | 87 | 1016.4 |
| 20260509041955 | 55 | 0 | 0.0 | 0.0 | 0.00 | 0.02 | 0.00 | 87 | 1016.3 |
| 20260509035956 | 55 | 0 | 0.0 | 0.0 | 0.00 | 0.02 | 0.00 | 89 | 1016.3 |
| 20260509034956 | 54 | 0 | 0.0 | 0.0 | 0.00 | 0.02 | 0.00 | 90 | 1016.3 |
| 20260509033959 | 54 | 0 | 0.0 | 0.0 | 0.00 | 0.02 | 0.00 | 90 | 1016.3 |
| 20260509032955 | 54 | 0 | 0.0 | 0.0 | 0.00 | 0.02 | 0.00 | 90 | 1016.1 |
| 20260509031956 | 54 | 0 | 0.0 | 0.0 | 0.00 | 0.02 | 0.00 | 90 | 1016.0 |
| 20260509030955 | 55 | 0 | 0.0 | 0.0 | 0.00 | 0.02 | 0.00 | 89 | 1016.0 |
| 20260509025955 | 54 | 0 | 0.0 | 0.0 | 0.00 | 0.02 | 0.00 | 90 | 1016.1 |
| 20260509024957 | 55 | 0 | 0.0 | 0.0 | 0.00 | 0.02 | 0.00 | 90 | 1016.2 |
| 20260509023958 | 55 | 0 | 0.0 | 0.0 | 0.00 | 0.02 | 0.00 | 90 | 1016.2 |
| 20260509022955 | 55 | 0 | 0.0 | 0.0 | 0.00 | 0.02 | 0.00 | 89 | 1016.1 |
| 20260509021956 | 56 | 0 | 0.0 | 0.0 | 0.00 | 0.02 | 0.00 | 87 | 1016.1 |
| 20260509020956 | 56 | 0 | 0.0 | 0.0 | 0.00 | 0.02 | 0.00 | 87 | 1016.1 |
| 20260509015957 | 56 | 0 | 0.0 | 0.0 | 0.00 | 0.02 | 0.00 | 87 | 1016.1 |
| 20260509014955 | 56 | 0 | 0.0 | 0.0 | 0.00 | 0.02 | 0.00 | 88 | 1016.0 |
| 20260509013955 | 55 | 0 | 0.0 | 0.0 | 0.00 | 0.02 | 0.00 | 89 | 1016.0 |
| 20260509012005 | 56 | 0 | 0.0 | 0.0 | 0.00 | 0.02 | 0.00 | 87 | 1016.1 |
| 20260509010959 | 56 | 0 | 0.0 | 0.0 | 0.00 | 0.02 | 0.00 | 87 | 1016.0 |
| 20260509005959 | 57 | 0 | 0.0 | 0.0 | 0.00 | 0.02 | 0.00 | 87 | 1016.1 |
| 20260509004955 | 57 | 0 | 0.0 | 0.0 | 0.00 | 0.02 | 0.00 | 87 | 1016.1 |
| 20260509003955 | 57 | 0 | 0.0 | 0.0 | 0.00 | 0.02 | 0.00 | 87 | 1016.3 |
| 20260509002955 | 57 | 0 | 0.0 | 0.0 | 0.00 | 0.02 | 0.00 | 86 | 1016.3 |
| 20260509000959 | 57 | 0 | 0.0 | 0.0 | 0.00 | 0.02 | 0.00 | 86 | 1016.2 |
| 20260508235956 | 57 | 0 | 0.0 | 0.0 | 0.00 | 0.02 | 0.00 | 87 | 1016.2 |
| 20260508234959 | 57 | 0 | 0.0 | 0.0 | 0.00 | 0.02 | 0.00 | 86 | 1016.2 |
| 20260508233957 | 58 | 0 | 0.0 | 0.0 | 0.00 | 0.02 | 0.00 | 85 | 1016.1 |
| 20260508231955 | 58 | 0 | 0.0 | 0.0 | 0.00 | 0.02 | 0.00 | 86 | 1016.1 |
| 20260508230956 | 58 | 0 | 0.0 | 0.0 | 0.00 | 0.02 | 0.00 | 86 | 1016.1 |
| 20260508230009 | 58 | 0 | 0.0 | 0.0 | 0.00 | 0.02 | 0.00 | 85 | 1016.0 |
| 20260508224956 | 58 | 0 | 0.0 | 0.0 | 0.00 | 0.02 | 0.00 | 85 | 1016.0 |
| 20260508223957 | 58 | 0 | 0.0 | 0.0 | 0.00 | 0.02 | 0.00 | 85 | 1016.1 |
| 20260508220955 | 58 | 0 | 0.0 | 0.0 | 0.00 | 0.02 | 0.00 | 85 | 1016.0 |
| 20260508220001 | 59 | 0 | 0.0 | 0.0 | 0.00 | 0.02 | 0.00 | 85 | 1015.9 |
| 20260508214956 | 59 | 50 | 0.0 | 1.0 | 0.00 | 0.02 | 0.02 | 85 | 1015.9 |
| 20260508211956 | 60 | 0 | 0.0 | 0.0 | 0.00 | 0.02 | 0.02 | 84 | 1015.6 |
| 20260508210956 | 60 | 0 | 0.0 | 0.0 | 0.00 | 0.02 | 0.02 | 84 | 1015.5 |
| 20260508205956 | 60 | 74 | 0.0 | 1.0 | 0.00 | 0.02 | 0.02 | 83 | 1015.4 |
| 20260508204956 | 60 | 0 | 0.0 | 0.0 | 0.00 | 0.02 | 0.02 | 83 | 1015.4 |
| 20260508203959 | 61 | 0 | 0.0 | 0.0 | 0.00 | 0.02 | 0.02 | 82 | 1015.4 |
| 20260508202956 | 61 | 65 | 0.0 | 4.0 | 0.00 | 0.02 | 0.02 | 82 | 1015.3 |
| 20260508201956 | 62 | 69 | 0.0 | 1.0 | 0.00 | 0.02 | 0.02 | 82 | 1015.4 |
| 20260508195956 | 62 | 0 | 0.0 | 0.0 | 0.00 | 0.02 | 0.02 | 81 | 1015.1 |
| 20260508194955 | 63 | 0 | 0.0 | 0.0 | 0.00 | 0.02 | 0.02 | 80 | 1015.1 |
| 20260508193956 | 64 | 0 | 0.0 | 0.0 | 0.00 | 0.02 | 0.02 | 79 | 1015.1 |
| 20260508192956 | 64 | 86 | 0.0 | 2.0 | 0.00 | 0.02 | 0.02 | 78 | 1015.0 |